Temp
20 20 20 19 19 19 20 20 20 20 20 20 20 19 19 19 20 20 21 22 24 23 23 24 24 24 24 24 25 24 23 23 22 21 20 19 19 19 19 19 18 18 17 17 16 16 16 16 16 16 16 16 16 16 16 16 17 17 17 17 17 17 18 18 18 17 17 17 17 16 17 17 17 17 18 17 17 17 17 17 17 17 16 16 16 16
20 20 19 19 19 20 21 20 20 20 19 20 20 20 19 19 20 21 21 22 23 22 22 24 23 23 24 24 24 23 23 23 22 22 20 19 19 19 19 19 18 17 17 17 16 16 16 16 16 16 16 16 16 16 16 16 16 17 17 17 17 17 18 18 18 18 18 18 17 17 17 17 17 18 18 17 17 17 17 17 17 17 16 16 16 16
19 19 18 19 20 20 20 19 19 19 19 19 19 19 19 19 20 21 22 23 23 22 23 24 23 23 24 23 23 23 23 23 22 22 21 20 19 19 19 19 18 17 17 17 16 16 16 16 16 16 16 16 16 16 16 16 16 16 16 17 17 17 18 18 18 18 18 18 18 18 18 18 18 17 18 18 18 17 17 17 17 17 17 17 16 16
18 19 19 19 19 20 19 19 19 18 18 18 18 19 18 19 20 20 22 22 23 23 23 23 22 22 23 23 23 22 22 23 22 22 22 20 20 19 19 19 18 18 17 17 16 16 15 16 16 16 16 16 16 16 17 16 16 16 16 17 17 18 18 18 18 18 18 18 18 18 18 18 18 18 18 18 18 18 17 17 17 17 17 17 16 16
19 19 20 20 19 19 20 19 19 18 18 18 18 19 18 19 20 20 21 21 22 22 22 22 21 22 23 24 24 22 22 23 22 21 21 21 20 20 19 19 18 17 17 17 16 15 15 15 16 16 16 16 16 17 17 16 16 16 16 17 17 18 18 18 18 17 17 18 18 17 17 17 17 17 17 17 17 17 17 17 17 17 17 17 17 16
19 20 20 20 19 19 19 19 19 18 18 18 19 19 19 20 20 20 20 20 20 21 21 22 21 21 23 24 24 22 22 23 21 20 21 20 20 20 19 18 18 17 17 17 16 15 15 15 15 15 15 15 16 17 16 16 17 17 17 17 17 18 18 18 18 17 17 18 18 17 17 17 17 17 17 17 18 17 17 17 17 17 17 17 17 16
19 20 20 20 20 19 19 19 19 18 18 18 20 20 20 20 20 20 20 20 20 21 21 21 21 21 22 24 23 20 21 21 20 20 20 20 19 19 18 18 18 17 17 16 15 15 15 15 15 15 15 15 16 17 16 15 16 16 16 17 17 18 18 18 18 18 17 18 18 17 18 18 17 17 17 17 18 18 18 17 17 17 17 17 17 17
20 20 20 20 20 19 19 19 19 19 18 19 21 21 20 20 20 20 20 20 21 21 21 21 21 20 21 23 22 19 19 19 19 19 19 19 19 18 18 18 17 17 16 16 15 15 15 15 15 15 15 15 16 16 16 15 16 16 17 17 17 18 17 18 18 18 17 18 18 18 18 18 18 18 18 18 18 18 18 18 17 17 17 17 17 17
20 21 20 20 19 19 19 20 20 19 19 21 22 21 21 21 21 20 20 20 21 21 21 21 21 20 21 22 21 20 20 18 18 19 18 19 19 18 18 18 17 16 16 15 15 15 15 15 15 16 16 15 16 16 15 16 16 17 17 18 18 17 17 17 18 17 17 18 18 18 18 18 18 18 18 18 18 18 18 18 18 17 17 17 17 17
21 21 21 20 20 19 20 21 20 20 21 22 22 21 21 21 21 21 21 21 21 20 20 21 21 20 21 22 21 19 19 17 17 18 18 18 19 18 18 16 16 16 15 15 15 16 15 15 16 16 15 15 15 16 16 16 16 16 17 17 18 17 17 17 18 17 17 18 18 18 18 18 18 18 18 18 18 18 18 18 18 17 17 17 17 17
20 21 21 21 21 21 21 21 20 20 21 22 21 21 21 21 21 21 20 21 21 20 20 21 21 20 21 21 19 17 18 17 17 17 18 19 19 18 17 16 16 16 15 15 16 16 15 15 15 15 15 15 15 15 15 15 15 15 16 17 17 17 17 17 17 17 17 18 18 18 18 18 18 18 18 18 18 17 18 18 17 17 17 17 17 17
20 21 21 22 23 22 22 22 21 21 21 21 22 21 21 20 21 21 20 20 20 20 21 21 21 21 21 20 18 16 16 16 17 18 18 19 19 17 17 16 16 16 16 16 16 16 15 14 15 14 14 14 14 15 15 15 15 15 15 16 17 16 17 17 17 17 18 18 18 18 19 19 19 19 18 18 18 17 18 18 17 17 17 17 17 17
20 20 21 22 23 23 22 22 21 21 20 20 21 21 20 20 20 20 20 20 20 20 21 20 20 21 20 19 17 16 16 16 17 18 18 19 18 17 17 16 16 16 16 16 16 15 15 14 14 14 14 14 14 15 15 15 15 15 15 16 16 16 17 17 17 18 18 18 18 19 19 19 19 19 18 18 18 17 18 18 17 17 17 17 17 17
20 20 21 22 23 23 23 21 21 21 20 20 21 21 20 20 19 19 19 19 19 20 20 19 20 20 19 18 16 16 16 17 17 18 18 18 18 17 16 16 16 16 16 16 16 15 15 14 14 14 14 14 14 15 15 15 15 15 15 15 16 16 17 17 17 18 18 18 18 19 19 19 19 19 18 18 18 18 18 18 18 18 17 17 17 17
19 20 21 22 23 23 23 22 22 22 22 21 21 21 21 20 20 19 20 20 20 21 20 19 20 19 18 18 16 16 17 17 17 17 17 17 17 16 15 15 15 15 15 16 15 15 15 14 14 14 14 14 14 15 15 15 15 15 15 15 16 16 17 17 17 17 17 18 18 19 19 19 19 19 19 18 18 18 18 18 18 18 18 17 17 17
19 20 22 22 22 23 23 23 23 23 22 20 20 21 21 21 21 20 19 19 19 20 20 18 18 16 17 17 16 17 17 17 17 16 16 16 16 15 15 16 16 15 15 15 15 15 14 14 14 14 14 14 15 15 15 15 15 15 15 15 16 16 17 17 17 17 17 18 18 19 19 19 19 19 19 19 18 18 18 18 18 18 18 17 17 17
19 20 21 22 22 23 24 24 23 23 23 20 20 21 21 21 22 20 19 18 18 20 19 16 16 16 17 17 17 17 17 17 17 16 16 15 15 15 15 16 16 15 15 15 15 15 14 13 13 14 14 15 15 15 15 15 15 15 16 15 15 15 16 17 17 16 16 17 18 18 19 19 19 19 19 19 19 18 18 18 18 18 18 18 17 17
19 20 21 21 22 23 23 23 23 23 23 21 21 22 20 20 21 21 20 19 19 20 18 16 16 16 17 18 17 16 17 17 17 17 16 16 15 15 15 15 15 15 15 15 15 15 14 13 13 14 14 15 15 15 15 15 15 15 15 15 14 14 14 15 15 15 15 16 18 18 19 19 19 19 19 19 18 18 18 18 18 18 18 17 17 17
19 20 21 21 21 22 22 22 22 22 22 22 22 22 21 20 21 20 20 20 19 19 18 16 16 16 17 17 16 16 17 17 17 16 16 16 16 15 15 15 15 15 15 15 15 14 14 13 13 14 14 15 15 15 16 16 15 15 15 15 14 14 14 14 14 15 16 17 18 18 18 19 19 19 19 18 18 18 18 18 18 18 17 17 17 17
18 19 20 21 21 21 22 21 21 21 22 22 22 22 21 21 21 20 20 20 20 19 17 17 17 17 17 16 16 16 17 16 17 17 16 16 16 15 15 15 15 15 15 15 14 14 14 13 13 14 14 15 15 15 16 16 16 16 15 15 14 14 15 15 15 16 17 17 18 18 18 19 19 19 18 18 18 18 18 18 18 18 17 17 17 17
18 19 19 20 21 20 21 21 20 21 21 22 22 21 20 20 20 20 19 19 20 20 18 17 17 17 16 14 15 16 16 16 16 16 15 15 15 15 15 15 15 15 15 14 14 14 14 13 13 14 14 15 15 15 15 16 16 16 15 14 14 15 15 15 16 17 17 17 18 18 18 19 19 18 18 18 18 18 18 18 18 18 17 17 17 16
19 19 18 19 20 20 20 20 19 19 20 20 20 19 18 19 20 20 19 18 19 19 18 18 18 16 14 14 14 15 16 16 15 15 15 15 15 15 15 15 15 14 14 14 14 14 14 14 14 14 14 14 14 14 15 15 16 16 15 14 14 15 15 16 16 17 17 17 18 18 19 18 18 18 18 18 18 18 18 18 18 17 17 17 17 16
18 18 18 19 19 18 18 19 19 18 18 18 18 17 17 18 19 21 21 19 19 18 17 18 18 16 14 13 14 15 15 15 14 15 15 15 14 14 14 14 14 14 14 14 14 14 13 13 13 13 13 14 14 14 15 15 15 15 15 14 15 15 15 15 16 17 17 18 18 18 18 18 18 18 18 18 18 18 18 18 17 17 17 17 17 16
18 17 18 19 18 18 19 19 19 19 18 19 18 16 17 18 17 18 19 19 19 18 18 19 18 16 14 14 14 14 14 15 14 14 15 15 14 14 14 14 14 14 14 13 13 13 13 13 13 13 13 13 13 14 14 14 14 14 14 14 15 15 15 15 16 17 17 18 17 17 18 17 17 17 17 18 18 18 18 17 17 17 17 17 16 16
18 16 17 18 17 17 18 19 19 19 19 18 18 16 17 17 17 17 17 19 19 18 18 20 18 15 14 14 14 14 15 15 14 14 14 14 14 14 14 13 13 13 13 13 12 12 12 13 13 13 13 13 13 13 13 13 14 14 14 14 15 15 15 15 15 16 17 17 17 16 16 16 16 16 17 17 17 17 17 17 17 17 17 17 16 16
17 15 16 18 17 16 17 17 18 18 17 16 17 17 17 17 18 18 18 20 20 17 17 19 17 14 14 14 14 14 14 14 14 14 14 14 13 13 12 11 11 11 11 11 11 11 11 11 12 12 12 12 12 12 12 13 13 13 13 14 14 14 14 14 15 15 16 16 16 15 15 16 16 16 16 16 16 16 16 16 17 17 17 17 17 16
17 15 15 17 17 16 16 16 16 16 16 16 16 17 17 17 18 19 18 19 18 17 17 16 15 14 14 14 14 14 14 14 14 14 13 12 12 11 10 10 10 10 10 10 10 10 10 10 11 11 11 11 12 12 12 12 12 12 13 13 13 14 14 14 14 15 16 16 16 15 15 16 16 15 15 15 15 15 15 15 16 16 17 17 17 17
17 15 14 15 15 14 14 15 15 15 16 16 15 15 15 16 18 20 19 17 16 17 17 15 14 15 15 14 14 14 14 14 14 13 12 11 11 10 10 10 10 9 9 9 9 10 10 10 10 11 11 11 11 12 12 12 12 12 12 13 13 13 13 13 13 13 14 15 15 14 14 14 14 15 15 14 14 15 15 15 15 16 16 17 17 17
16 15 13 14 14 13 13 15 15 14 14 13 13 13 13 15 17 18 16 14 14 17 17 15 15 15 14 14 14 14 14 13 12 11 11 10 10 10 10 10 9 9 9 9 9 9 9 10 10 10 10 10 11 11 11 12 12 12 12 12 12 13 13 12 12 13 13 13 13 12 12 12 13 14 14 14 14 14 15 15 15 16 16 16 16 16
15 14 13 13 14 13 13 14 14 13 13 12 11 11 12 13 14 14 13 12 13 15 15 14 14 13 13 13 13 13 12 11 11 11 10 10 10 10 10 9 9 9 9 8 9 9 9 9 9 10 9 10 10 11 11 12 12 11 11 11 12 12 12 12 13 13 13 12 12 12 12 12 13 13 13 14 14 14 15 15 15 15 15 16 16 16
15 14 13 13 14 13 12 13 13 13 14 14 12 11 12 12 13 13 13 13 13 14 13 13 13 12 11 11 11 11 11 11 10 10 10 10 10 9 9 9 9 8 8 8 8 8 8 9 9 9 9 9 10 10 11 11 11 11 11 11 11 11 11 12 12 12 12 12 12 12 12 13 13 13 13 13 14 14 14 14 14 15 15 15 15 16
15 14 12 13 14 13 12 12 13 13 14 15 13 11 10 11 12 13 13 13 13 13 13 13 13 12 10 10 10 10 10 10 9 8 8 9 8 9 8 8 8 8 8 8 7 7 7 8 8 8 8 8 9 9 10 10 10 10 10 10 10 10 11 11 11 11 11 11 11 12 12 12 12 12 13 13 13 13 14 14 14 14 15 15 15 15
15 14 13 14 14 12 11 12 12 13 14 14 12 10 9 10 11 12 12 12 12 13 14 14 12 10 9 10 9 9 8 8 7 7 7 7 7 7 7 7 7 7 7 7 7 7 7 7 7 7 8 8 8 8 9 9 9 9 9 9 9 10 11 11 10 10 10 10 11 11 11 11 11 12 12 12 12 12 13 13 13 14 15 15 15 14
14 14 14 13 13 12 11 12 12 13 13 13 11 10 9 10 11 11 11 10 10 11 11 11 9 8 8 9 8 7 6 6 6 6 6 6 6 6 6 7 7 7 7 6 6 7 6 6 7 7 7 8 8 8 9 9 8 8 9 9 9 10 10 10 10 10 10 10 11 11 11 11 11 11 11 11 12 12 12 12 12 13 14 14 14 14
13 14 13 12 13 12 11 12 13 12 12 11 10 10 10 10 10 10 10 9 9 9 9 8 8 7 7 6 6 5 5 5 5 5 5 5 5 6 6 6 6 6 6 6 6 6 6 6 6 6 7 8 8 8 9 9 9 9 9 9 9 9 9 9 9 9 10 10 10 10 11 11 11 11 11 11 12 12 12 12 12 12 12 13 13 13
14 14 13 12 12 12 12 13 13 12 10 10 11 10 10 10 11 11 11 10 9 9 8 7 7 6 6 6 5 5 5 5 5 5 5 5 5 5 5 5 5 6 6 6 6 5 5 6 6 6 7 8 8 8 9 9 10 10 9 9 9 8 8 9 8 8 9 9 9 9 10 10 10 10 10 11 11 11 11 11 11 12 12 12 12 13
14 14 13 12 12 12 12 11 11 11 11 11 11 10 9 10 10 10 11 10 9 9 8 7 6 6 6 6 5 5 6 6 6 5 5 5 5 5 5 5 5 6 6 6 6 6 6 7 7 6 7 7 8 8 8 8 9 9 9 8 8 8 8 8 8 8 8 8 8 8 9 9 10 9 9 10 10 10 10 10 11 11 11 11 12 12
13 14 14 13 11 11 12 11 11 12 12 11 10 10 10 10 10 9 10 10 9 8 8 7 7 6 6 6 6 7 8 8 6 5 4 5 6 6 6 5 5 6 6 6 7 7 7 8 8 8 8 8 8 8 8 8 8 8 8 7 7 8 8 7 7 7 7 7 8 8 8 8 9 9 9 9 9 9 9 9 10 10 10 11 11 11
13 13 13 13 12 11 12 12 11 12 11 10 10 10 9 9 9 9 11 11 9 8 8 8 7 7 7 7 7 8 9 8 6 5 4 5 6 6 6 6 6 7 7 7 7 7 8 8 8 8 8 8 8 7 8 8 8 8 7 7 7 7 7 7 7 7 7 7 7 7 7 7 8 8 8 8 8 8 8 8 9 9 9 10 10 10
13 12 12 12 11 11 11 11 10 10 10 9 9 9 9 9 8 10 13 12 9 8 8 8 7 8 8 8 8 9 10 8 7 5 4 5 6 6 6 6 6 7 8 8 8 8 8 8 8 8 8 8 8 8 8 8 8 7 6 6 6 6 6 6 7 7 7 7 7 7 7 7 7 7 7 7 7 7 7 7 8 8 9 9 9 10
12 11 11 11 10 10 10 10 10 10 9 8 8 8 8 9 11 12 12 11 8 8 8 8 8 8 8 8 9 9 8 8 7 6 6 6 6 6 6 6 7 7 8 8 8 8 8 8 8 8 7 8 8 8 8 8 7 6 6 6 6 6 6 6 6 7 7 7 7 6 6 6 6 6 6 6 6 7 7 7 7 7 7 8 8 9
11 11 10 10 10 10 9 9 10 10 9 7 7 7 8 11 12 11 10 9 8 8 8 8 8 9 9 9 8 8 8 7 7 7 7 7 7 7 7 7 7 7 8 8 8 9 8 8 8 7 7 8 8 8 8 8 7 6 6 5 5 5 6 6 6 6 6 6 6 6 6 6 6 6 6 6 6 6 6 6 6 7 7 7 7 7
10 10 10 9 9 9 10 10 10 10 9 7 7 9 10 10 10 9 8 8 9 8 8 8 8 9 9 9 8 8 8 7 7 7 7 7 7 7 7 7 7 7 7 8 8 8 8 7 6 7 7 7 7 7 8 7 6 5 5 5 5 5 6 6 6 6 6 6 5 5 5 5 5 5 5 5 5 5 5 6 6 6 6 6 6 6
9 10 10 9 8 9 9 9 9 8 7 7 7 9 8 8 8 9 8 8 8 8 8 8 8 8 9 8 8 8 8 7 7 7 7 7 7 6 6 7 7 7 8 8 8 8 7 6 5 6 6 7 7 7 7 7 6 5 5 5 5 5 5 5 5 5 5 5 4 4 4 4 4 4 4 4 5 5 5 5 5 5 5 5 5 5
9 9 9 8 7 8 8 8 7 7 7 7 7 7 7 7 8 8 8 8 8 8 8 8 8 8 8 8 7 7 7 7 7 7 7 7 7 6 6 7 7 7 8 8 8 8 7 6 6 6 6 6 6 6 6 6 6 5 5 4 5 5 5 5 5 4 4 4 4 4 4 4 4 4 4 4 4 4 4 4 4 4 4 4 4 4
9 9 9 8 7 8 8 8 8 7 8 8 7 7 7 8 8 8 8 7 7 7 8 7 7 8 8 8 7 7 6 7 7 7 7 6 6 6 6 6 7 7 8 7 7 7 7 7 6 6 6 5 6 6 6 6 6 5 5 4 4 4 4 4 4 4 3 3 3 3 3 3 3 3 3 3 3 3 3 3 3 3 3 3 3 3
10 9 9 8 8 8 8 8 8 8 8 8 8 8 8 8 8 8 7 7 6 7 7 7 8 8 8 8 8 7 7 7 7 6 6 6 6 5 6 6 6 7 7 7 6 7 7 7 6 6 6 6 6 6 6 6 5 5 4 4 4 4 4 4 3 3 3 3 3 3 3 3 3 3 3 3 3 3 3 3 3 3 3 3 3 3
10 10 9 8 8 8 8 7 7 8 8 8 8 8 8 8 8 8 7 7 7 7 7 7 7 8 8 7 7 7 7 6 6 6 6 6 5 5 5 6 6 7 7 7 7 7 7 6 6 5 5 5 5 5 5 5 5 5 4 4 4 4 4 4 3 3 3 3 3 3 3 3 3 3 3 3 3 3 3 2 2 2 2 2 2 2
9 9 8 7 7 7 7 7 7 8 8 8 8 8 8 8 8 8 8 8 8 8 7 7 7 7 7 6 6 6 6 6 5 5 5 5 4 5 5 5 6 7 7 7 7 7 6 6 6 5 5 5 5 5 5 5 4 4 4 4 4 4 4 4 3 3 3 3 3 3 3 3 3 3 3 3 3 3 2 2 2 2 2 2 2 2
9 9 8 7 7 7 8 8 8 8 8 8 8 8 8 8 8 8 8 8 8 8 7 6 6 5 5 5 5 5 5 5 4 4 4 4 4 4 5 6 6 6 6 6 6 6 6 6 6 6 5 5 5 5 5 5 5 4 4 4 4 4 4 4 3 3 3 3 3 2 3 3 3 3 3 3 3 3 2 2 2 2 2 2 2 2
9 9 9 9 9 8 9 8 7 8 8 8 8 8 7 7 8 8 8 8 8 7 7 7 7 6 5 4 4 5 4 4 4 3 3 3 4 5 5 6 6 6 6 6 6 5 6 6 6 6 6 5 5 6 6 5 5 4 4 4 4 4 4 3 3 3 3 3 3 2 3 3 3 3 3 3 3 3 2 2 3 3 3 2 2 2
Height
752 759 763 764 764 764 763 763 762 764 767 768 770 773 773 775 769 758 755 749 743 750 749 743 745 742 737 731 726 730 735 736 739 742 745 746 748 748 749 750 752 757 758 759 764 769 771 772 773 774 774 775 776 777 780 781 782 781 780 780 781 781 781 783 786 790 793 796 798 801 802 803 805 807 809 811 813 814 816 817 819 820 821 822 823 824
754 762 762 760 761 759 758 760 762 764 766 768 770 772 773 774 767 755 754 748 743 752 750 742 745 742 735 729 723 727 733 734 735 738 743 744 745 746 746 748 752 756 758 760 765 770 772 774 775 776 777 778 779 781 783 784 783 783 782 782 783 782 782 783 786 789 793 795 797 799 801 803 805 807 808 810 812 814 816 817 819 820 821 822 823 824
761 762 758 755 757 756 758 761 763 766 767 769 772 774 774 770 764 755 750 745 742 749 748 742 746 741 729 725 722 723 727 728 729 729 732 737 741 744 744 747 752 755 757 761 765 770 773 773 773 774 776 777 778 779 781 782 784 784 784 785 785 783 783 784 787 790 793 795 798 800 802 804 805 807 808 810 812 814 816 817 819 820 821 822 823 824
766 758 752 753 755 757 760 761 764 768 768 771 772 775 774 768 768 763 752 747 744 747 748 745 748 740 729 725 719 718 721 722 724 725 725 728 733 737 739 743 749 752 756 760 765 769 770 769 768 770 772 774 776 775 774 776 780 783 785 786 787 786 785 786 788 791 794 796 798 800 803 804 806 807 808 810 813 815 816 817 818 820 821 822 823 824
760 751 747 751 755 757 760 760 765 769 770 771 770 771 772 767 768 765 756 752 749 748 747 747 751 740 729 727 719 717 721 719 722 726 727 729 730 733 738 744 749 752 754 759 764 767 769 771 771 772 775 776 776 773 770 771 774 777 781 784 786 787 786 787 789 792 795 797 798 800 803 805 806 807 809 810 812 814 816 817 818 819 821 822 823 823
755 748 746 750 755 758 760 761 763 767 770 770 765 763 764 761 761 760 758 760 761 758 748 747 760 750 730 726 722 722 723 720 723 727 729 732 733 737 742 746 749 753 755 758 763 767 771 774 775 776 777 776 774 771 770 771 771 772 776 780 784 786 786 788 790 793 795 796 798 800 802 804 806 807 809 810 812 814 816 817 818 820 821 822 823 823
749 745 745 749 753 756 761 761 759 761 770 770 758 752 754 755 758 758 759 765 766 761 749 747 762 760 738 725 726 731 731 727 729 729 730 733 736 739 742 745 748 751 755 759 764 767 769 770 769 770 769 768 769 768 768 770 772 773 775 779 782 785 786 788 790 793 795 796 798 800 802 803 806 807 809 811 813 815 816 818 819 821 822 822 823 824
742 744 746 748 752 757 761 759 753 755 766 764 747 745 750 753 756 756 758 763 758 753 750 748 754 760 749 733 733 738 737 737 737 735 736 736 737 739 741 743 747 750 754 758 763 765 766 764 762 763 763 764 766 767 768 769 771 773 775 778 781 784 786 788 791 794 795 797 798 800 802 804 806 808 810 812 814 815 817 818 820 821 822 823 824 824
738 742 745 746 753 758 754 748 746 751 758 749 736 741 747 746 750 752 755 759 756 754 754 749 752 761 754 737 736 738 739 747 747 741 741 738 737 739 740 744 747 750 753 755 760 762 763 761 759 760 761 763 766 767 768 768 770 772 773 776 779 783 786 788 791 794 796 797 799 800 802 804 806 809 810 812 814 815 816 818 820 821 822 823 824 825
736 737 737 742 750 751 743 737 740 748 747 736 733 741 742 743 748 750 753 754 756 762 759 749 751 760 753 737 740 745 746 756 755 747 744 740 738 738 740 744 747 750 753 754 757 759 759 758 758 760 761 764 767 767 768 769 772 774 774 776 779 782 785 788 792 794 796 798 800 801 803 805 807 809 811 813 814 815 816 818 820 821 823 824 824 825
734 732 733 737 739 737 733 732 735 738 736 731 736 743 744 748 748 749 754 752 759 768 757 744 746 755 754 743 747 757 756 757 756 750 746 740 739 740 741 744 745 748 751 752 755 757 758 759 760 763 764 765 766 767 769 771 773 776 776 777 779 782 785 788 791 794 796 799 800 802 804 805 807 809 811 813 814 815 817 818 820 821 823 824 824 825
735 735 735 730 727 728 730 731 731 731 732 734 739 743 749 754 750 753 758 757 769 770 749 741 746 751 755 750 753 760 757 754 751 748 744 740 740 741 742 744 745 747 748 750 753 755 758 761 763 765 765 765 767 768 770 772 774 777 778 778 780 783 786 788 791 793 796 799 801 803 804 806 808 810 812 813 814 816 817 819 820 821 823 823 824 825
737 735 733 726 722 723 729 735 733 731 735 740 743 747 755 762 761 765 766 766 772 762 745 748 749 748 755 757 758 758 754 750 748 746 743 739 739 741 743 745 745 746 746 747 751 753 757 759 761 764 766 767 770 771 773 774 774 776 778 778 780 783 786 788 790 793 796 798 800 802 804 805 808 810 812 814 815 817 818 819 820 821 822 823 824 825
742 736 730 728 724 718 724 735 737 735 737 740 743 746 755 766 774 778 774 774 770 754 747 751 748 750 758 759 759 758 753 749 746 745 744 742 743 744 746 748 749 748 747 750 754 756 758 760 761 764 768 771 773 774 775 775 775 777 778 779 781 783 786 787 789 792 795 797 799 801 803 805 807 809 811 814 816 818 819 819 820 821 822 823 824 824
751 745 730 726 724 717 718 724 725 727 731 734 734 737 746 754 764 772 767 765 761 751 750 752 752 762 765 758 757 754 750 748 745 745 744 745 747 746 748 752 755 755 755 759 762 762 763 766 766 767 769 772 775 776 776 777 777 778 778 780 781 782 784 785 788 790 793 796 798 801 803 805 807 809 811 814 816 817 818 819 820 821 821 822 823 824
751 746 725 719 719 716 716 714 712 719 728 734 733 735 741 740 743 757 762 759 758 755 758 763 767 772 766 757 755 751 748 748 747 747 747 749 751 749 748 750 755 759 760 762 763 763 766 768 768 769 770 773 775 776 777 777 777 778 778 779 780 781 782 784 787 790 793 795 797 800 803 806 808 810 811 813 815 817 818 819 819 820 821 822 823 824
749 742 725 719 719 714 713 711 710 716 724 734 736 733 734 731 731 749 763 766 764 759 766 777 776 772 767 760 755 752 752 750 749 749 749 751 755 756 754 752 756 760 761 762 762 762 766 768 769 771 772 774 776 776 777 777 777 777 778 780 781 783 784 785 787 790 794 796 797 800 803 806 808 809 811 813 814 816 817 818 819 820 821 821 822 824
745 741 726 722 722 713 708 710 709 709 715 727 732 727 729 734 735 743 756 767 767 762 769 780 779 775 772 766 760 757 755 753 752 752 750 751 757 763 763 759 759 760 761 762 763 763 767 769 771 772 773 775 776 776 777 777 778 778 779 781 783 787 790 789 788 791 797 799 799 800 803 805 807 809 810 812 814 816 817 818 819 820 821 822 823 824
740 742 729 722 724 716 708 713 717 712 711 716 719 718 725 737 742 745 753 762 765 768 774 778 778 777 772 767 765 762 758 756 755 755 752 752 756 762 764 762 760 761 761 763 765 767 769 771 773 774 776 776 776 777 777 777 778 779 781 783 784 790 795 795 794 796 800 801 799 800 802 804 806 808 810 812 814 816 817 818 819 820 821 822 823 824
738 744 737 724 722 720 715 719 725 723 715 713 716 720 725 731 738 743 748 751 755 766 777 779 777 774 768 769 768 763 760 759 758 759 758 756 756 759 761 762 761 761 762 765 767 770 772 773 775 776 778 779 778 779 778 778 779 780 783 785 787 791 795 798 799 798 799 799 799 800 802 804 806 808 811 813 815 816 817 818 819 820 821 822 823 824
736 743 743 731 723 725 726 724 727 727 722 720 723 728 732 734 735 740 746 748 748 755 768 776 778 773 768 770 769 762 760 761 760 762 764 762 762 761 760 761 761 762 764 766 768 771 773 775 776 778 780 781 781 781 780 779 780 781 784 787 790 792 795 796 797 797 798 799 799 800 802 804 806 808 810 813 815 817 817 818 819 820 821 822 823 824
736 741 745 741 733 733 733 728 726 726 725 728 731 736 742 740 736 740 750 753 748 751 760 766 770 774 772 771 768 762 760 761 763 766 767 767 768 767 763 762 763 764 766 768 769 771 773 775 777 779 780 782 783 782 782 781 781 782 784 787 791 793 794 794 795 796 796 797 798 799 800 802 804 807 809 812 814 817 818 819 820 821 822 823 824 825
734 740 745 745 741 740 737 729 728 728 727 728 734 741 745 742 737 737 744 748 749 755 761 759 763 772 774 770 766 763 762 763 767 768 768 769 771 771 769 767 768 769 768 770 771 772 773 774 776 778 780 782 783 783 783 783 783 783 785 788 790 792 793 794 794 795 795 796 797 798 800 802 805 807 808 811 814 816 817 819 820 822 823 824 825 826
734 744 747 744 743 740 734 728 728 728 727 729 736 742 742 742 743 741 740 741 743 753 756 755 764 774 771 768 767 765 764 765 769 771 770 772 773 773 773 772 772 771 771 772 773 773 775 775 775 777 779 781 782 783 784 784 785 786 786 787 789 790 793 795 795 795 796 797 798 800 802 804 806 807 809 811 814 816 817 819 821 822 823 824 825 826
738 751 750 748 753 752 745 740 734 730 732 735 740 743 741 742 744 744 744 741 742 753 751 748 764 776 770 767 769 767 766 766 770 771 771 773 774 774 775 774 773 773 774 774 775 776 777 778 777 778 780 783 783 784 785 785 786 787 787 788 788 789 791 794 796 797 798 799 800 802 803 804 807 809 811 812 814 816 818 820 821 822 823 824 825 826
741 754 751 749 757 761 760 754 746 743 745 745 744 742 741 740 738 740 744 740 742 754 754 750 764 774 771 769 771 769 769 770 772 771 771 774 777 777 777 779 778 778 779 779 780 781 781 781 781 781 783 785 786 786 787 788 789 789 789 789 789 790 792 795 798 800 801 802 802 803 804 805 807 810 812 814 815 817 819 821 822 823 824 825 825 826
742 755 756 751 751 756 758 754 751 751 750 749 747 744 743 742 738 739 744 746 749 756 757 759 765 769 770 771 771 771 772 774 774 773 775 778 780 781 782 783 783 783 784 784 784 784 784 785 785 786 787 788 788 788 788 789 791 791 791 791 792 793 795 797 799 800 800 801 802 803 805 805 807 810 813 816 817 818 821 822 822 823 824 825 825 826
742 752 758 757 755 759 760 753 752 753 751 753 754 751 750 746 737 736 745 755 759 755 757 764 765 764 768 770 771 773 773 774 775 777 780 783 783 784 784 785 786 787 788 788 787 787 788 789 790 790 790 790 789 789 790 790 791 792 792 793 794 795 796 797 799 800 800 801 802 803 805 806 808 810 812 816 818 819 821 823 823 823 824 825 825 826
745 754 759 760 759 762 762 755 753 757 760 764 765 762 761 753 742 744 755 765 763 754 754 764 766 767 770 771 772 774 774 776 780 782 784 785 785 786 786 787 789 791 791 791 791 791 791 791 792 793 792 792 791 791 791 792 793 793 794 794 795 796 797 798 800 801 802 803 804 806 807 808 809 810 812 815 817 819 821 823 823 823 824 824 825 826
749 758 762 760 759 763 764 760 758 760 762 767 772 772 768 762 757 759 764 768 766 760 760 765 769 774 778 776 775 776 777 781 784 785 787 787 787 788 788 790 792 794 795 795 794 794 793 793 794 794 794 794 794 794 794 795 796 796 796 797 797 798 799 800 801 803 804 805 806 808 809 810 811 812 814 815 817 818 821 822 822 823 824 824 825 826
747 758 762 759 761 767 769 765 763 764 762 764 770 773 771 767 765 765 766 766 766 768 771 770 772 780 785 783 781 781 782 784 787 790 792 792 791 790 790 793 796 797 797 797 796 796 795 795 796 796 796 797 797 797 797 798 798 799 800 801 801 802 802 802 803 805 806 807 808 809 810 811 813 813 814 816 817 818 819 820 821 823 824 824 825 826
748 759 764 759 761 769 773 770 767 765 761 761 768 777 780 778 772 770 769 767 766 769 774 773 774 782 789 788 787 788 788 790 794 798 798 799 800 797 796 798 800 800 800 800 799 798 797 798 798 799 800 800 800 800 801 801 802 802 804 805 805 805 805 805 806 807 809 810 810 811 811 812 813 814 815 816 817 818 819 820 821 823 824 824 825 826
751 756 760 759 762 772 776 773 771 768 764 766 777 787 789 784 777 773 772 771 769 768 768 771 777 787 791 789 789 794 797 799 803 805 804 806 807 805 804 804 804 804 804 803 803 802 802 802 802 802 803 803 803 804 804 804 805 806 808 808 808 808 807 808 810 810 811 812 813 813 813 813 814 815 816 817 817 818 819 819 821 823 824 824 825 826
755 755 759 761 764 773 777 774 773 773 771 776 785 789 787 783 779 779 781 782 781 777 775 778 786 794 796 794 796 801 805 808 810 810 810 810 811 810 810 810 809 809 808 807 807 806 807 807 806 805 805 805 806 807 806 806 808 809 810 810 810 810 811 812 813 813 814 814 815 815 815 815 815 816 817 818 818 818 819 820 821 823 823 823 824 825
757 757 761 765 767 773 776 773 771 775 780 783 786 787 785 783 781 782 785 788 788 787 787 790 795 800 802 804 807 808 809 811 812 812 813 815 815 814 813 813 814 814 813 812 811 810 810 810 809 807 807 808 808 809 808 809 810 811 812 812 813 813 814 815 815 815 816 816 816 817 817 817 817 818 818 819 819 819 820 821 822 823 823 823 824 825
755 757 763 769 772 774 775 772 773 781 787 786 785 785 785 783 782 780 781 787 792 792 793 797 802 805 806 808 810 811 810 810 812 815 817 817 818 817 816 816 817 818 817 816 816 814 813 812 811 811 811 811 810 811 811 812 813 813 813 815 815 816 817 817 817 818 818 818 818 818 819 819 819 819 820 820 820 820 821 822 823 823 824 825 825 826
753 755 759 768 774 775 777 782 785 787 787 786 787 790 790 790 788 785 785 791 795 795 796 800 804 807 808 810 812 813 809 808 813 820 821 819 819 819 819 820 820 820 820 819 818 817 815 815 814 814 815 814 813 814 815 815 815 815 815 817 817 818 819 818 819 821 820 820 821 821 821 821 821 821 822 822 822 823 823 823 824 824 825 826 826 826
755 755 755 763 775 777 777 784 787 782 782 787 790 791 791 790 790 790 790 793 796 797 799 801 803 806 808 809 811 810 806 808 819 826 825 822 821 821 822 823 823 823 822 822 821 819 818 817 816 817 819 818 818 819 819 818 817 817 817 819 819 819 820 820 822 823 823 823 823 823 823 823 823 823 823 824 824 825 825 825 825 826 826 827 827 827
757 760 757 761 774 778 775 780 784 782 784 791 793 792 791 791 792 792 788 788 795 800 800 801 803 805 805 805 807 806 803 809 822 828 827 825 825 825 826 826 825 824 824 824 823 822 821 820 819 820 820 820 820 821 821 820 819 818 820 821 822 821 821 823 825 825 825 825 825 825 825 825 825 826 826 827 827 828 828 828 828 828 828 827 827 827
761 764 765 768 778 783 781 785 791 790 792 796 796 794 792 791 792 789 780 782 794 799 799 801 803 803 804 805 806 805 804 809 819 826 826 827 827 828 828 827 825 825 824 825 824 823 823 823 821 821 821 822 823 823 822 821 820 820 823 824 824 824 825 827 828 828 828 828 827 826 826 826 826 827 827 828 829 829 830 829 829 828 828 827 826 825
772 774 776 780 786 788 788 792 795 796 797 799 798 796 793 788 786 784 781 786 796 799 799 802 803 803 805 805 805 807 808 810 816 821 824 826 826 827 827 827 826 826 826 825 825 824 824 824 823 823 823 824 825 824 823 822 822 824 826 826 827 828 830 830 831 830 830 829 828 828 827 827 827 827 827 827 828 828 828 828 827 827 826 825 825 824
782 783 786 788 791 793 795 796 796 797 800 802 801 797 791 785 784 787 790 792 795 797 800 803 803 804 805 806 807 809 811 813 817 820 823 825 826 827 827 827 827 827 826 826 825 825 825 826 826 826 826 827 827 827 826 825 826 828 829 829 830 832 833 833 832 831 830 830 829 829 829 829 829 828 828 828 828 827 827 826 826 826 825 825 824 824
791 791 793 798 798 797 797 796 796 797 802 804 800 794 791 790 791 794 796 796 796 798 800 803 805 805 805 807 809 810 811 815 818 820 822 824 825 826 826 826 826 826 826 825 826 826 827 827 828 828 829 830 830 830 829 828 829 830 831 831 833 835 834 833 832 831 831 830 830 831 830 830 830 830 830 829 828 828 827 827 826 826 825 825 824 823
794 792 794 803 805 801 801 805 807 808 809 808 802 798 798 800 798 796 797 800 802 802 802 804 806 806 806 808 810 812 813 816 819 820 822 823 824 825 825 825 825 825 825 825 826 827 828 829 830 830 831 832 832 833 832 831 831 832 832 834 835 835 835 834 834 833 832 832 832 833 832 832 832 832 831 831 830 830 829 828 828 827 826 826 825 824
800 796 796 806 812 809 809 813 814 813 812 810 807 805 804 802 800 798 798 801 804 804 804 806 808 809 808 809 812 814 817 819 820 822 823 824 825 825 825 826 826 826 826 826 827 828 829 830 831 831 832 833 834 834 834 833 832 833 834 835 836 836 836 836 835 834 834 834 834 834 834 834 833 833 833 832 832 831 831 830 830 829 828 828 827 826
802 800 800 807 812 812 811 813 814 813 812 810 808 807 805 803 802 802 801 804 807 807 807 808 810 811 812 812 814 817 820 821 823 824 825 826 826 826 827 828 828 828 828 828 829 829 830 830 831 832 832 834 835 834 834 834 833 834 835 837 837 837 837 836 835 835 835 835 835 835 835 834 834 834 833 833 833 832 832 831 831 830 829 829 828 827
799 799 803 808 811 813 815 816 815 814 813 811 809 808 808 806 806 806 805 808 811 811 811 811 812 813 815 815 817 820 822 823 824 826 827 828 828 828 828 829 830 830 830 831 831 831 831 831 832 832 833 834 835 835 835 834 835 835 837 837 837 837 836 836 835 835 835 836 836 835 835 834 834 834 833 833 833 833 832 832 831 830 829 828 827 826
799 799 804 810 814 815 816 817 817 815 813 812 811 810 811 810 810 810 810 811 812 813 815 815 816 817 819 820 821 823 824 825 826 827 829 830 830 831 831 831 831 832 831 832 832 832 833 833 834 835 835 836 836 836 836 835 836 836 837 837 837 837 837 836 837 837 837 837 837 836 836 835 835 834 834 833 833 832 831 830 829 828 827 827 826 825
802 803 809 815 819 820 819 818 817 815 814 815 813 812 813 812 812 813 813 813 814 816 818 820 821 822 823 824 824 825 827 828 829 829 831 832 832 833 833 833 833 833 833 833 834 834 835 835 836 836 837 837 838 837 836 836 837 837 837 837 837 837 837 837 838 838 838 838 837 837 836 836 835 835 834 833 832 831 830 829 828 827 826 825 825 824
805 809 815 816 818 820 818 816 815 814 815 817 815 814 814 813 813 814 816 816 818 819 820 823 825 826 826 826 826 827 829 831 831 831 833 834 834 834 835 834 835 835 835 835 835 836 836 837 837 838 838 838 838 838 837 838 838 838 838 838 838 838 838 837 837 837 837 837 837 836 836 835 835 834 833 832 831 830 829 828 827 826 825 824 823 823
807 810 811 810 812 813 811 812 815 814 814 816 816 815 816 816 814 816 817 818 820 821 821 823 825 827 829 829 828 828 830 832 832 832 833 835 835 835 835 835 835 835 836 836 836 837 837 838 838 838 838 839 839 838 838 839 839 839 839 838 838 838 837 837 837 837 836 836 836 836 835 835 834 834 833 832 831 830 828 827 826 825 825 824 822 821
Wind_Speed
3 3 5 6 5 5 6 7 7 4 1 1 3 3 4 4 8 9 5 4 4 4 6 7 6 9 10 13 14 5 9 11 11 9 9 10 10 11 10 11 10 9 8 10 12 13 12 14 16 15 16 16 14 14 16 18 20 24 27 28 28 28 27 26 26 25 24 23 22 20 19 18 16 15 13 12 11 9 8 8 9 10 9 10 10 9
3 5 8 6 6 6 6 6 6 3 1 2 3 5 6 5 8 9 5 6 5 1 5 6 5 9 12 14 14 5 10 10 12 12 11 13 13 11 13 12 9 8 8 11 12 12 14 15 15 13 13 11 9 10 10 11 16 21 23 26 28 28 27 25 25 25 25 24 22 20 19 18 17 16 14 12 11 9 8 8 9 9 9 10 9 9
2 6 7 5 6 5 3 2 4 3 3 3 2 2 5 4 6 8 5 5 3 2 5 8 5 10 13 13 13 8 8 9 13 16 16 16 14 12 14 12 10 10 9 11 11 12 15 16 18 17 15 15 13 14 13 10 12 17 20 23 26 27 26 24 24 25 25 24 21 18 17 17 17 16 14 11 10 9 8 8 8 8 8 8 8 8
4 6 7 6 5 5 3 3 3 2 2 3 3 2 5 3 2 5 4 4 3 2 6 8 6 8 11 10 10 7 6 7 10 15 15 16 16 16 14 11 11 12 12 13 12 11 14 19 23 22 21 21 20 23 26 21 17 17 19 21 23 25 25 24 25 25 24 22 19 17 16 16 15 14 13 11 10 10 8 8 7 7 6 6 7 7
8 7 5 6 6 6 6 5 4 4 3 3 6 6 5 4 4 7 6 5 5 4 5 3 5 6 6 7 8 5 3 7 8 9 9 10 11 10 9 9 10 11 12 15 14 11 11 12 15 17 19 20 21 27 28 26 25 23 23 24 23 25 24 24 25 23 22 21 19 16 15 15 14 12 13 13 13 11 10 9 8 7 6 5 5 5
11 7 5 6 5 6 6 6 5 6 4 4 6 9 9 8 9 10 7 5 5 5 4 1 4 6 6 6 7 5 3 4 5 9 10 8 7 8 10 10 10 11 12 13 13 11 11 9 11 15 20 22 23 30 28 25 29 29 28 28 26 26 25 24 25 22 21 20 19 17 16 16 15 13 14 15 15 14 12 10 9 8 6 5 4 5
6 5 6 7 6 6 6 6 5 8 5 5 6 10 12 11 10 10 7 1 1 5 4 3 3 5 7 6 7 6 5 5 2 6 9 8 8 9 10 11 11 12 13 13 12 12 13 13 16 21 30 30 28 31 28 24 27 28 28 29 28 27 26 25 25 23 21 21 20 18 18 18 17 16 15 15 15 14 12 10 9 8 7 6 6 6
4 5 5 6 5 5 5 6 6 10 7 5 6 8 9 9 9 9 6 5 4 4 3 3 4 3 5 5 6 6 6 8 6 4 6 7 10 11 11 11 11 12 13 14 13 13 13 16 20 25 32 33 31 29 26 25 28 29 29 30 29 27 26 26 26 24 23 22 21 20 19 19 18 17 15 15 15 13 12 11 11 10 9 9 8 8
3 5 7 7 5 4 6 7 7 11 6 9 8 8 7 8 9 8 6 5 3 2 5 5 2 2 5 5 6 5 6 7 5 3 6 8 12 14 12 11 12 13 14 14 14 15 15 18 23 27 31 32 30 28 27 29 32 33 32 31 30 27 25 25 25 25 24 21 21 21 20 19 18 17 16 15 15 13 13 13 11 10 11 10 10 9
2 6 7 6 5 5 8 9 8 12 8 8 6 5 3 3 3 3 5 4 1 1 6 7 1 2 5 5 5 5 6 5 4 1 4 8 14 14 10 12 14 13 13 13 15 16 18 23 27 27 26 26 27 28 28 29 28 28 30 31 29 26 24 24 25 26 23 20 21 22 22 21 20 19 17 17 15 14 14 12 11 11 11 11 10 10
3 2 4 5 5 6 8 8 7 15 12 3 3 3 3 1 2 1 2 3 2 2 7 8 5 4 3 5 2 2 3 3 3 2 5 9 12 11 10 12 14 12 11 12 13 14 16 20 23 21 19 20 24 25 24 24 21 20 24 28 28 24 23 24 25 25 22 20 22 23 23 23 22 20 20 19 17 14 14 13 12 13 12 11 11 10
6 2 3 4 6 6 5 6 4 9 10 3 3 2 3 3 4 3 4 4 2 5 7 7 5 6 3 4 3 5 6 5 7 7 11 14 12 10 10 12 11 11 12 12 11 11 10 11 13 15 17 19 20 20 20 21 19 17 20 25 25 22 22 23 24 23 22 22 23 24 24 24 23 21 21 20 18 16 16 15 15 14 13 12 11 10
6 4 4 3 5 6 5 5 4 1 4 5 3 3 3 2 3 2 3 0 2 6 6 4 3 4 3 4 5 9 7 1 5 5 8 13 13 11 11 11 11 12 13 13 10 9 8 9 11 14 15 14 13 13 15 16 16 16 18 22 23 22 22 22 22 23 23 24 26 26 26 26 23 21 21 21 19 18 17 17 16 14 12 12 11 11
4 5 4 2 4 4 7 4 3 1 3 6 5 4 4 2 1 1 4 1 3 5 4 3 1 1 3 3 5 8 6 3 2 2 2 6 8 9 8 7 7 8 9 7 4 5 6 5 8 10 8 5 5 8 9 11 13 14 15 19 21 22 22 21 21 22 24 26 27 27 27 26 23 21 20 20 20 18 17 16 14 13 11 11 10 11
3 4 4 5 4 2 7 8 7 5 5 5 5 6 5 4 4 3 4 3 4 3 3 4 0 0 1 3 7 5 4 5 5 4 4 4 5 8 8 8 7 5 6 3 1 2 4 5 8 10 9 6 4 6 6 8 11 12 14 18 21 22 23 22 22 23 24 26 26 26 26 25 23 21 20 20 19 17 17 15 14 13 11 10 10 11
4 5 7 6 3 1 3 6 6 6 3 3 2 5 3 4 6 2 3 5 3 1 2 3 1 1 2 3 7 4 4 6 7 7 8 7 4 5 8 8 7 5 6 5 1 4 6 8 11 13 12 10 8 7 8 9 12 13 15 19 22 24 25 24 22 22 23 25 26 25 25 24 22 21 20 20 19 17 16 16 15 13 11 10 10 10
2 5 7 4 4 5 6 4 3 4 4 1 2 3 3 4 7 3 2 1 1 1 1 1 1 3 2 3 6 5 4 5 5 7 10 10 9 6 4 6 8 7 6 4 3 5 6 8 11 14 14 12 11 10 10 10 12 14 16 17 18 19 21 23 22 17 15 20 24 24 24 23 22 21 21 21 19 18 17 16 15 13 11 11 10 10
2 4 6 4 5 8 5 3 2 2 4 4 2 5 3 3 5 3 2 2 3 2 3 1 2 2 1 1 4 3 2 2 2 3 8 10 8 5 3 4 6 6 5 4 4 6 7 8 11 13 13 12 13 12 11 10 9 11 13 14 16 14 10 13 20 17 11 13 21 23 23 24 23 22 21 20 19 18 18 17 15 13 13 12 11 10
2 2 7 4 5 7 3 2 2 5 1 4 4 3 3 2 1 1 2 1 1 2 2 2 1 2 2 2 3 3 3 3 2 1 4 9 9 5 2 4 5 5 5 4 5 5 5 7 11 13 13 13 14 13 11 10 7 8 8 12 15 11 4 10 18 19 13 14 19 22 23 24 23 21 20 20 20 19 18 17 15 15 14 13 12 11
1 1 5 5 3 4 5 3 1 4 4 2 3 1 2 3 4 2 2 3 3 3 1 0 1 2 3 3 3 4 3 2 2 3 1 4 7 6 4 4 5 5 5 5 6 5 5 8 11 14 14 14 14 13 12 11 9 9 9 10 14 14 11 13 18 19 18 17 20 21 23 24 22 20 19 19 19 19 17 16 15 15 15 14 12 11
2 2 3 6 5 3 2 1 4 4 1 2 2 1 2 1 3 1 0 2 4 4 3 3 1 4 3 2 3 2 1 2 3 2 5 6 5 4 5 6 6 6 6 6 7 7 6 10 13 14 16 16 16 15 14 13 13 13 13 14 17 18 17 16 17 18 17 17 20 22 23 23 21 20 20 19 18 17 15 14 14 16 15 13 12 11
1 1 1 3 5 2 4 4 1 4 6 5 3 2 1 2 3 3 1 2 2 4 4 5 3 4 3 2 3 1 3 2 4 3 4 7 7 5 5 8 7 7 7 7 7 8 7 9 12 14 15 16 16 16 16 15 15 16 16 18 19 18 18 17 17 17 16 17 21 23 25 24 21 19 19 17 17 16 14 13 14 15 14 12 11 10
2 3 2 2 2 3 7 5 4 1 6 8 3 2 3 2 3 4 4 3 1 3 2 3 2 2 3 2 1 2 4 5 6 2 2 3 3 5 6 7 8 7 8 8 7 7 8 11 13 15 16 17 16 16 16 16 15 16 18 20 20 18 17 17 17 17 16 18 21 25 25 22 19 19 19 18 17 16 14 14 14 14 12 10 10 11
2 3 2 2 3 4 6 6 5 5 4 6 3 2 3 0 1 5 5 3 3 3 2 3 1 2 3 3 1 3 7 7 5 2 4 3 3 5 5 4 7 7 7 8 7 6 8 11 14 15 16 15 15 16 16 16 17 17 18 19 19 18 17 16 16 16 16 18 21 23 22 19 17 18 19 19 18 17 15 15 15 13 10 9 11 11
1 0 1 1 3 4 5 6 6 6 3 3 1 2 1 2 3 2 1 2 2 3 4 5 2 3 2 1 1 4 7 6 3 4 6 3 3 5 5 4 6 7 7 8 8 8 7 8 9 11 12 11 12 13 14 17 17 16 16 17 18 18 17 17 17 16 16 18 21 22 20 19 17 17 18 19 18 18 18 16 13 10 9 9 11 11
3 1 2 3 2 2 1 2 3 3 3 2 1 2 2 5 6 2 1 3 1 2 3 5 3 3 3 2 2 5 7 6 4 5 6 3 3 6 6 7 7 7 8 10 10 9 8 7 9 11 13 12 11 12 13 14 14 13 14 15 15 16 16 17 15 15 17 20 21 20 20 21 20 18 16 15 16 16 15 13 11 9 8 9 10 10
4 3 1 3 4 4 4 5 5 2 1 2 3 4 2 3 5 5 3 2 2 2 3 0 5 8 7 6 5 5 6 6 5 6 6 5 6 7 8 8 8 8 8 9 9 8 9 9 10 12 14 14 14 14 14 13 13 14 15 13 12 14 17 17 15 17 21 22 23 22 23 23 22 19 16 13 13 13 10 10 12 10 8 8 9 10
4 3 3 2 3 2 1 3 4 1 3 1 3 6 6 3 5 7 4 1 3 4 1 3 6 10 9 8 6 5 5 5 6 6 6 5 6 7 8 9 10 10 9 9 9 9 10 9 9 11 13 14 16 17 17 17 17 17 16 13 11 12 14 15 15 17 20 21 22 20 18 18 18 17 16 13 12 12 9 9 12 11 10 10 10 10
5 1 2 1 3 6 6 6 6 5 4 4 6 7 7 6 6 7 3 2 4 3 3 4 6 6 6 6 5 4 5 7 7 7 6 5 6 8 9 10 11 10 9 10 9 9 10 9 8 11 14 15 17 18 19 20 19 20 19 15 12 11 10 12 14 14 15 15 15 12 12 14 15 15 15 14 14 14 12 10 11 11 11 12 12 11
4 1 1 1 3 6 8 7 6 6 4 6 8 8 8 7 6 7 4 5 6 3 4 9 8 4 2 3 4 5 7 8 8 7 7 6 6 8 10 11 11 10 9 10 9 7 8 9 11 14 16 18 19 19 20 21 21 22 22 20 18 15 13 13 13 13 12 11 10 10 11 14 15 14 13 12 13 14 11 9 8 7 7 8 9 9
3 1 1 1 3 5 7 6 6 6 6 6 8 10 11 9 6 6 5 6 7 5 6 10 9 4 4 3 5 8 8 9 9 8 7 6 5 7 11 11 10 9 9 9 9 8 8 10 13 15 18 19 20 21 22 22 24 25 25 25 24 23 22 21 19 18 15 12 11 10 10 11 12 11 9 9 11 12 11 11 10 8 8 7 5 5
3 2 1 3 3 2 4 3 3 4 5 7 8 11 11 7 3 2 1 1 4 7 9 8 5 2 1 3 7 8 8 11 10 8 7 7 7 8 10 10 9 9 9 9 9 9 9 9 10 14 17 19 21 23 22 23 26 26 26 26 27 29 31 31 29 27 24 21 18 16 14 12 11 9 8 7 8 8 8 9 8 7 7 7 6 4
2 3 1 2 3 1 3 3 3 4 3 3 4 6 6 4 2 3 4 4 2 5 8 5 3 2 1 4 8 8 9 11 10 7 7 6 6 8 9 9 9 8 8 8 8 9 9 9 11 15 18 20 23 24 23 25 27 26 26 27 29 32 35 34 33 32 31 29 27 25 23 21 19 17 16 14 12 10 9 9 7 5 4 2 3 3
3 4 2 1 3 1 2 2 2 2 1 1 2 3 4 4 1 4 4 6 6 3 5 5 6 6 5 5 8 9 8 9 9 8 8 7 5 6 7 7 8 7 7 7 8 8 9 11 15 20 22 22 24 25 27 28 28 26 27 28 31 33 34 33 33 33 32 31 31 30 29 28 26 25 23 21 19 17 16 15 12 8 4 2 2 2
3 3 2 1 3 2 1 2 3 2 1 2 2 3 4 1 3 7 8 8 7 5 9 10 9 8 8 8 8 8 10 10 9 9 10 7 5 5 7 7 7 7 7 7 7 7 9 12 17 21 23 23 23 25 28 30 29 29 30 30 31 32 31 32 33 32 32 32 30 29 28 27 27 26 25 24 23 22 21 19 17 14 10 8 7 6
5 3 2 2 2 2 1 2 1 1 2 3 3 4 4 3 3 5 7 8 8 5 6 10 9 8 10 10 7 7 9 10 10 9 8 6 5 6 7 6 6 5 6 7 7 8 10 13 18 21 22 23 23 25 26 27 29 31 31 31 31 31 31 32 33 32 32 32 30 28 27 25 25 25 24 23 22 22 21 20 18 16 13 11 10 9
5 4 2 2 1 2 3 2 1 2 2 2 2 3 2 1 2 2 3 4 5 3 4 10 11 9 9 9 7 5 7 10 10 7 7 6 6 6 6 5 4 5 7 8 9 11 13 16 20 22 22 23 24 23 23 24 28 30 30 30 30 31 32 32 32 30 31 30 29 27 26 24 24 24 23 22 22 22 20 19 17 16 14 12 11 11
4 3 3 3 1 1 3 2 1 2 1 1 1 3 2 1 2 0 2 2 2 3 4 8 12 11 9 9 8 7 6 8 7 3 3 5 6 6 6 5 4 4 6 7 8 12 15 17 20 20 21 23 23 22 22 24 27 30 30 28 28 30 31 31 29 28 29 28 27 26 24 23 23 22 22 21 21 20 19 17 17 16 15 14 13 13
8 4 3 4 2 2 3 3 1 1 2 2 3 6 5 2 3 1 3 1 2 5 5 7 11 11 10 10 9 6 4 5 4 1 1 2 5 5 4 4 5 7 8 9 10 13 15 17 19 20 22 23 23 23 24 26 29 32 30 27 28 30 30 28 27 26 26 25 24 24 23 22 22 21 20 20 19 17 16 16 15 14 14 13 13 13
7 5 4 4 2 2 3 2 1 1 1 3 5 8 8 4 2 3 2 3 4 7 7 7 9 10 9 8 5 2 1 4 5 5 5 5 4 4 4 5 7 10 11 12 13 14 15 17 19 21 23 23 22 24 26 28 31 31 28 27 29 29 27 25 24 23 22 22 22 22 22 22 21 20 19 18 17 15 15 14 14 14 14 14 14 14
4 3 3 3 3 3 3 2 1 1 1 4 7 9 8 4 1 3 1 4 4 7 6 6 8 8 6 5 2 2 3 5 8 8 7 7 6 6 7 9 11 12 12 12 14 17 18 18 20 22 22 22 23 24 25 28 31 29 27 28 28 26 23 21 20 19 20 20 20 21 21 20 20 19 18 17 16 15 15 15 15 15 15 15 15 15
3 3 3 2 2 2 2 2 1 1 1 5 9 9 5 1 1 2 2 1 5 8 7 6 6 6 4 3 3 5 7 9 10 9 7 7 7 7 8 10 12 12 12 14 15 17 17 18 21 23 23 22 23 23 24 26 28 27 26 26 25 21 19 18 18 18 18 18 19 18 18 18 17 16 16 16 16 16 16 16 16 16 17 17 16 16
2 2 2 2 2 2 3 3 2 0 2 8 10 6 2 1 2 3 2 3 4 7 8 6 4 4 5 5 6 9 11 10 9 8 7 6 6 7 9 10 12 12 13 15 16 16 18 20 23 25 24 22 21 21 21 23 26 25 24 23 20 18 17 18 17 17 17 17 17 16 15 15 14 14 14 14 15 15 16 16 16 17 17 18 18 18
3 1 1 1 2 2 2 2 0 2 5 7 5 2 1 1 2 0 3 4 3 3 5 4 2 3 6 9 9 9 9 9 7 7 7 6 6 7 9 11 13 14 15 16 15 16 20 23 24 24 24 22 21 20 20 21 23 23 22 19 17 16 17 16 16 15 15 15 14 13 13 13 12 13 13 13 14 14 15 15 16 16 16 16 17 18
2 2 4 2 2 2 2 1 1 2 4 5 3 2 3 3 4 4 6 5 3 3 3 4 4 4 6 9 9 8 7 7 7 6 6 6 6 7 9 11 14 15 15 15 15 16 20 23 23 23 23 22 21 20 20 20 21 21 19 16 15 16 16 15 15 15 14 13 13 12 12 11 11 12 12 13 13 13 13 14 14 13 13 13 14 15
1 2 4 3 2 3 4 2 1 1 2 4 5 4 5 6 5 6 8 8 5 5 5 5 6 6 7 8 9 7 6 6 7 6 6 6 6 8 11 13 15 16 16 14 14 16 18 20 21 21 21 20 19 19 19 20 20 18 15 13 14 15 15 15 16 17 16 15 14 13 13 12 12 12 12 12 12 12 12 12 12 12 12 11 11 12
1 3 5 3 2 3 2 1 2 2 2 4 6 6 7 8 7 7 8 8 7 7 7 7 8 8 7 8 8 7 6 7 7 6 5 5 5 7 10 13 14 15 15 13 13 15 17 18 19 19 19 18 17 17 18 18 17 16 13 12 13 14 15 16 17 17 17 16 15 15 14 14 14 13 13 12 12 12 12 12 13 13 13 12 12 12
2 3 4 3 2 2 1 1 3 3 3 4 4 5 6 7 8 8 7 8 8 9 9 10 10 8 6 6 7 7 6 6 6 6 5 5 6 8 10 12 13 14 13 11 12 14 16 17 17 17 17 16 15 15 16 16 15 14 13 13 13 14 14 14 15 15 15 14 14 13 13 13 14 13 13 13 13 13 14 14 14 15 15 14 14 14
2 3 2 2 3 3 1 1 2 4 5 5 3 4 4 5 7 8 7 8 9 9 9 10 10 8 7 6 6 7 7 6 6 8 6 5 6 8 9 11 13 13 12 11 11 13 15 16 16 15 15 14 14 15 16 16 14 13 12 12 12 13 13 12 11 12 13 13 13 13 12 12 12 12 13 14 14 14 15 15 15 16 17 16 14 13
3 3 2 4 4 0 3 3 2 3 2 1 1 3 3 4 7 8 7 7 7 7 7 8 8 9 9 9 10 10 8 5 7 10 8 6 7 9 10 11 12 12 11 12 12 14 14 14 14 14 14 13 14 16 17 16 14 12 11 11 11 11 12 11 11 12 13 13 14 13 13 13 13 13 14 15 16 16 16 15 15 16 17 17 15 13
3 4 3 4 4 4 6 6 4 4 3 4 3 0 1 2 6 8 7 6 6 6 8 9 8 8 7 7 12 15 11 7 10 12 10 8 9 11 11 11 11 11 11 12 12 13 12 12 12 12 13 12 13 15 16 15 13 12 12 11 11 12 12 12 12 13 13 13 13 14 14 14 15 15 16 16 16 17 18 18 19 18 18 18 18 17
Wind_Direction
141 190 241 225 200 172 191 197 200 213 104 333 300 267 256 273 275 276 275 272 314 336 282 269 264 268 271 268 267 220 158 186 192 177 175 171 174 180 185 191 178 166 155 132 145 157 143 146 155 163 174 178 181 176 168 166 167 169 170 172 175 177 179 181 184 188 192 194 195 198 196 195 198 202 203 205 212 217 221 226 222 223 226 220 215 216
119 206 237 210 179 181 201 199 193 221 284 286 275 289 287 263 270 280 278 276 286 255 261 276 284 276 268 265 270 223 152 184 192 178 179 180 181 184 188 189 168 149 137 124 132 132 120 129 145 158 168 172 169 163 162 165 174 175 172 174 177 179 182 186 189 190 193 196 195 195 194 192 195 199 201 203 211 219 220 217 216 221 223 218 216 217
214 234 238 200 178 194 237 208 175 206 231 233 235 280 279 273 293 294 283 285 288 154 269 291 295 277 273 271 273 243 180 188 192 184 183 181 179 183 189 182 156 143 135 128 124 113 112 131 155 164 169 175 171 169 175 181 184 178 172 179 183 182 184 187 193 195 194 194 193 192 193 189 191 196 199 204 212 213 211 209 210 211 210 211 213 213
227 247 230 199 164 169 253 262 194 226 242 215 198 224 262 284 330 287 290 314 303 251 262 289 303 278 284 294 285 257 183 168 191 194 189 180 178 184 185 169 152 147 136 128 119 117 132 155 167 167 172 179 180 182 185 184 183 179 176 184 189 188 188 190 195 197 192 188 188 191 193 190 191 195 198 202 206 203 201 201 198 193 194 202 208 209
236 246 194 164 158 172 228 255 215 225 259 231 207 211 245 263 238 239 272 315 314 297 245 279 332 294 300 309 293 306 116 147 179 189 190 186 175 167 151 136 143 141 133 129 128 135 143 156 159 156 174 186 188 192 191 183 181 181 182 187 191 193 192 193 196 195 187 183 186 190 190 188 189 192 194 195 197 196 194 190 184 179 184 193 199 203
244 237 141 148 172 173 207 245 216 193 232 268 225 208 214 235 242 246 274 323 342 318 260 71 17 296 305 303 289 325 74 135 171 172 176 175 147 130 125 130 136 131 131 132 132 134 121 110 117 146 188 201 198 198 195 188 187 185 185 186 190 194 194 195 197 193 186 184 189 191 185 182 184 182 186 191 192 191 187 179 174 172 175 179 181 187
238 202 158 181 189 174 199 244 216 171 190 265 234 202 207 221 238 252 263 248 239 269 261 84 101 267 306 318 310 339 57 70 79 164 164 153 135 132 136 139 138 133 133 132 133 134 131 139 147 169 195 202 201 200 195 192 193 188 186 185 188 193 193 195 196 192 186 186 191 193 189 187 188 184 187 193 192 187 180 171 168 164 157 153 152 153
193 172 183 193 180 179 207 243 210 158 156 247 226 182 194 216 225 237 231 198 222 267 305 39 114 216 290 290 307 345 54 51 41 105 127 133 133 135 139 136 133 132 133 132 136 143 153 171 176 184 196 200 201 199 193 194 195 192 189 186 187 191 192 194 195 190 186 188 192 193 191 190 194 195 192 191 189 185 177 168 164 157 148 143 138 134
168 181 204 191 175 188 216 231 191 149 168 248 224 172 185 212 216 214 198 203 252 337 308 318 88 187 270 277 315 1 63 41 16 100 125 136 137 138 137 128 125 129 134 136 143 154 170 185 189 192 197 200 199 195 194 197 196 195 192 186 186 189 190 192 192 188 186 190 194 192 191 190 191 195 190 184 183 182 175 169 167 162 156 149 141 136
216 201 190 164 169 205 232 239 177 156 202 248 212 181 197 201 205 193 170 179 32 31 265 271 163 186 270 291 330 14 51 19 336 18 128 140 142 141 133 127 131 134 138 144 152 165 180 188 193 196 196 196 197 196 197 199 198 197 191 184 186 189 190 191 190 188 189 193 196 194 193 189 183 182 179 176 177 178 177 177 177 173 167 160 152 147
273 219 169 156 185 209 231 242 187 180 206 219 126 193 240 344 25 60 120 108 79 280 257 250 200 171 262 286 310 9 347 279 240 168 141 147 144 141 134 134 139 141 144 149 158 171 182 187 192 193 190 195 199 198 200 200 199 196 188 183 185 189 191 190 189 190 193 196 199 199 196 190 182 176 173 174 176 177 178 178 175 174 173 171 165 158
311 288 226 219 210 204 222 251 222 193 204 172 95 157 213 301 3 25 1 52 115 248 260 252 194 149 205 269 301 319 300 239 205 180 161 160 152 143 142 140 140 142 147 151 161 173 177 178 183 187 192 199 202 199 200 201 197 193 187 183 183 188 190 189 190 193 196 199 201 203 200 194 187 180 176 177 178 176 173 169 165 168 172 172 170 165
297 252 257 275 234 197 193 265 299 134 166 154 127 101 124 281 355 7 307 22 198 243 258 260 164 138 211 243 314 328 332 245 203 208 178 168 156 145 145 144 144 151 157 160 168 174 172 172 176 185 193 200 205 204 200 199 196 191 187 181 180 186 188 189 191 193 196 199 201 201 199 194 191 186 183 183 182 177 172 166 162 161 163 165 169 171
287 293 295 291 276 206 170 208 265 216 156 156 163 146 140 155 97 292 272 271 264 246 258 277 188 214 270 272 329 340 6 53 151 201 192 156 137 125 120 120 136 149 148 151 168 166 166 172 161 160 163 173 204 206 195 196 196 190 184 179 180 182 186 188 189 190 193 195 197 197 194 192 190 187 186 188 186 182 178 173 168 164 165 164 166 172
215 299 269 204 255 232 180 200 198 175 163 170 167 142 144 153 149 216 234 219 256 248 296 319 78 202 271 309 330 349 51 55 85 97 70 81 106 110 93 71 62 69 94 105 340 59 71 58 84 99 102 111 157 179 171 178 184 184 181 181 182 182 184 186 185 185 188 188 188 187 187 188 188 187 188 189 190 190 187 183 179 177 178 174 167 167
172 247 255 235 254 251 225 223 171 134 149 213 145 111 145 182 158 184 202 185 209 199 348 346 53 265 243 293 329 358 63 59 74 75 61 51 49 104 105 97 101 122 150 162 112 51 56 58 72 86 99 113 130 142 145 153 167 181 186 186 188 186 182 180 178 177 180 181 179 179 181 182 184 186 187 189 193 195 194 190 187 187 188 186 178 170
146 254 272 308 313 255 237 230 163 158 188 199 121 153 206 170 137 138 219 213 89 135 306 350 151 301 324 323 328 357 33 50 75 79 71 54 30 33 70 113 140 167 173 158 112 90 80 75 82 92 104 118 122 122 130 144 164 182 189 189 189 189 183 175 169 160 160 172 173 174 177 179 183 188 190 192 193 192 194 194 195 196 194 193 190 181
172 264 283 309 294 272 245 205 255 244 149 125 185 206 188 95 94 114 153 12 36 187 262 352 181 261 32 315 306 336 353 343 32 81 96 88 66 37 27 84 121 145 139 115 99 98 91 91 100 102 105 118 122 119 125 135 154 173 185 190 186 188 189 160 150 142 135 161 169 171 176 180 186 190 192 194 191 189 193 196 200 202 197 193 191 188
162 275 294 279 250 286 333 109 285 315 40 137 179 175 121 114 47 88 150 137 117 187 267 11 10 250 182 208 265 243 232 257 304 315 135 131 130 138 122 91 99 106 100 90 85 85 88 98 108 109 107 113 119 122 129 135 141 145 167 189 177 168 141 105 126 141 151 166 170 171 176 180 184 189 192 193 191 192 196 198 201 201 195 192 191 193
92 134 287 287 261 309 356 62 206 302 343 75 116 48 42 137 160 179 165 158 154 159 200 96 5 272 221 233 261 234 238 289 287 283 295 121 125 131 130 106 90 89 84 74 77 80 87 96 104 113 113 111 113 120 131 140 146 134 137 158 147 136 131 123 132 149 157 162 167 171 177 179 182 185 188 193 195 198 201 201 202 199 194 191 191 197
50 93 259 295 324 346 334 267 197 195 137 75 123 66 337 58 127 161 113 113 134 142 165 157 214 262 254 301 285 223 157 334 316 342 13 18 43 87 116 105 83 79 78 70 76 83 91 99 105 112 113 113 113 116 126 134 140 135 128 130 129 131 139 139 141 150 151 156 166 173 176 175 177 181 185 193 200 203 202 201 200 196 192 190 191 199
27 106 184 300 341 349 266 286 279 161 134 127 141 122 164 173 126 130 266 298 104 128 162 156 188 262 296 341 303 192 133 25 3 42 41 15 12 24 71 92 84 75 78 80 85 92 96 101 106 109 109 110 109 109 118 127 134 137 132 130 133 138 142 140 142 149 153 160 168 173 174 171 174 180 183 190 199 201 198 194 192 191 189 190 194 196
130 104 97 278 284 265 270 307 346 13 106 103 101 104 131 141 107 134 208 248 117 117 146 122 129 260 278 274 274 95 99 60 27 36 107 55 32 29 41 75 84 75 75 78 79 86 92 97 101 102 102 106 110 113 120 127 132 134 132 134 139 144 144 142 146 153 161 168 169 169 170 172 177 180 178 181 189 192 188 183 185 187 188 189 189 184
88 74 46 290 296 305 302 324 333 319 58 80 46 47 93 78 129 154 183 186 146 156 145 91 69 247 250 266 279 95 95 76 43 48 98 93 95 81 68 96 109 101 90 83 78 77 85 94 99 102 104 110 119 123 122 121 124 130 133 138 145 148 149 152 156 161 168 172 168 164 166 170 175 177 175 175 180 182 180 178 180 182 183 183 181 180
99 39 93 41 2 352 336 336 332 327 13 86 93 32 70 68 75 135 197 76 111 201 155 131 196 238 212 251 55 108 116 113 104 95 86 62 67 90 86 79 88 94 89 80 74 64 61 74 86 91 93 100 112 119 117 118 126 135 140 146 149 149 152 159 163 164 167 169 166 163 162 162 165 169 170 171 174 174 172 173 177 178 178 177 178 182
130 151 143 133 146 170 215 264 262 283 341 8 46 32 58 73 64 67 163 87 148 236 112 125 181 198 169 163 131 122 124 127 126 109 101 90 77 81 75 58 55 63 68 66 66 62 55 51 53 59 63 69 86 101 106 111 117 119 126 139 147 145 146 149 154 159 164 167 165 162 163 166 169 169 164 160 160 161 165 172 179 179 177 179 180 182
114 92 78 137 150 171 200 227 235 201 92 351 340 358 20 94 88 86 81 67 209 164 53 222 172 151 165 181 159 139 134 134 130 114 106 101 89 80 77 74 70 66 65 67 70 68 64 58 55 57 60 66 78 91 99 101 101 104 113 128 139 143 142 143 154 167 169 171 173 171 171 172 169 165 161 151 144 147 162 185 189 184 182 189 189 189
102 62 2 77 88 51 245 265 303 42 114 89 4 360 348 359 74 83 79 83 147 118 25 252 168 152 170 176 156 150 142 132 120 102 92 88 90 90 87 84 79 74 69 68 69 69 69 64 59 60 61 66 76 85 92 94 95 100 108 118 132 140 140 140 150 162 166 174 178 173 168 165 162 162 168 168 159 157 173 202 203 196 194 202 204 203
108 57 333 67 51 19 8 2 19 50 74 49 33 20 356 360 62 90 114 158 131 140 191 177 143 140 152 145 142 145 122 108 99 91 89 86 86 86 84 81 77 73 70 70 67 67 69 65 59 58 56 60 70 78 84 85 85 88 92 98 112 123 130 130 131 138 151 164 166 152 134 137 146 155 164 169 169 171 182 202 206 199 199 208 213 214
102 52 307 89 62 28 9 11 41 61 67 43 26 20 10 14 67 94 110 118 105 105 134 122 107 76 53 100 116 108 103 101 98 93 90 89 89 89 86 83 80 77 73 72 68 62 65 66 63 59 56 56 62 70 76 77 76 78 80 84 92 99 111 119 117 121 134 141 136 127 124 129 135 139 142 145 150 158 166 171 170 168 174 191 204 213
78 125 245 82 71 27 6 24 54 64 82 66 26 12 10 12 44 73 90 106 94 76 90 103 102 68 1 28 86 94 100 99 92 86 80 70 66 84 88 84 79 77 72 68 66 59 60 63 61 60 57 56 60 67 72 74 75 75 75 78 83 87 93 97 96 96 101 106 108 115 124 131 133 130 123 121 129 138 138 128 124 124 122 127 149 184
66 110 352 58 87 2 356 31 39 33 63 60 23 3 358 357 12 16 2 97 123 126 117 108 114 115 19 67 85 81 87 92 83 68 63 46 21 43 71 76 73 69 62 60 60 55 53 53 54 60 60 57 60 65 70 74 75 74 74 77 79 82 85 85 83 81 80 83 89 94 100 108 111 105 96 90 102 117 119 119 125 126 109 97 94 105
85 117 103 77 106 32 354 17 12 9 34 36 360 345 328 309 306 329 343 354 19 132 136 140 147 127 62 102 102 80 65 72 70 56 55 51 36 38 49 57 64 65 60 56 53 54 54 51 58 66 66 64 65 67 71 76 76 75 76 78 79 81 82 80 78 77 75 75 78 80 82 86 87 83 80 80 84 90 91 96 112 134 133 93 35 32
58 102 127 122 109 102 320 358 60 79 119 226 275 303 288 277 350 45 43 14 2 56 112 108 104 89 58 73 97 93 77 71 69 61 51 45 48 57 51 40 39 44 50 51 48 51 52 52 60 67 68 69 71 73 76 77 76 76 77 78 78 78 78 76 75 74 72 71 71 73 75 77 77 76 75 76 80 83 82 83 89 100 115 103 21 18
79 90 101 62 95 121 315 30 91 144 230 281 293 321 319 298 96 80 65 41 27 61 94 92 92 94 85 76 82 95 94 86 77 67 59 47 37 57 66 55 39 33 42 51 49 50 54 55 58 61 63 67 72 75 76 77 77 77 75 73 74 74 74 74 72 70 69 68 66 66 67 68 68 68 68 69 71 73 72 73 76 78 76 67 60 59
123 119 103 58 73 116 84 58 99 200 304 316 325 347 357 16 48 57 54 38 24 36 91 99 98 100 99 95 94 101 100 91 77 61 54 48 33 45 62 58 44 38 42 54 61 62 65 68 67 64 63 66 70 71 74 78 79 78 75 72 71 70 70 70 68 67 66 65 62 61 60 60 60 59 58 58 60 59 57 56 57 58 56 54 51 48
122 130 115 66 42 103 104 80 27 13 347 339 353 346 336 347 346 13 60 31 18 36 104 115 114 112 111 110 114 121 105 87 72 46 32 34 33 47 58 43 29 49 57 64 74 77 78 79 78 74 70 69 71 72 75 78 79 78 74 72 70 69 67 65 64 64 63 62 60 58 55 54 54 52 50 49 48 46 43 41 40 38 36 33 31 29
87 121 139 114 53 71 98 96 50 26 317 265 284 293 271 234 275 344 82 18 34 97 129 130 127 131 132 129 138 148 118 84 72 30 6 31 39 51 59 41 28 65 79 80 83 85 86 86 84 84 84 81 77 76 76 76 77 75 71 68 67 66 64 62 60 59 58 57 56 54 52 50 48 46 44 41 39 35 31 29 27 23 19 15 14 14
46 50 94 96 73 69 100 111 135 177 243 262 295 310 317 282 249 99 65 331 176 147 154 144 137 141 144 142 147 155 132 102 109 176 257 55 58 58 69 66 63 82 97 100 95 90 88 88 88 87 85 81 78 77 78 79 77 74 69 65 64 63 61 60 57 54 53 51 49 48 47 46 44 44 43 40 36 31 26 23 19 13 8 5 3 3
31 22 40 64 61 54 84 95 99 148 288 327 325 318 314 286 199 95 64 265 193 157 163 157 147 149 148 145 142 121 114 133 141 161 181 169 138 109 101 93 83 86 95 100 97 90 85 86 85 78 73 74 77 79 80 79 76 73 69 66 64 62 60 59 55 52 49 46 43 42 40 39 39 39 39 37 35 31 27 23 16 8 3 360 356 353
20 21 38 74 72 38 65 97 57 321 294 335 329 313 307 302 107 102 218 235 170 148 157 155 150 150 145 145 136 50 68 109 120 134 153 156 143 126 110 99 93 91 94 95 91 88 85 81 75 70 71 79 83 81 79 77 74 70 67 65 63 60 58 56 51 48 44 41 39 38 36 34 33 31 31 29 25 22 20 16 12 7 3 358 354 349
14 17 14 47 56 25 66 91 27 307 303 346 329 308 306 338 175 229 267 213 138 141 147 148 153 152 133 121 120 107 101 105 113 125 132 129 129 133 127 111 97 91 92 90 84 81 79 74 71 74 79 83 83 80 78 76 74 70 67 65 63 58 53 49 44 42 40 38 38 38 37 35 33 31 29 24 19 16 14 10 6 1 359 355 351 349
31 51 20 13 19 27 51 51 34 233 314 339 330 318 356 74 228 254 344 37 94 132 139 142 157 157 135 118 114 116 115 114 119 124 121 118 120 117 110 100 89 81 80 78 73 74 78 78 79 83 84 81 78 75 73 73 73 71 68 66 63 55 46 41 38 36 36 37 38 38 39 38 35 33 30 24 20 16 10 6 2 358 355 352 348 346
15 70 126 344 349 43 64 49 60 248 299 324 336 357 36 319 278 265 83 65 53 98 125 122 100 122 131 124 115 112 113 115 118 114 104 102 100 92 84 78 75 72 68 65 69 81 90 90 89 88 86 81 76 71 68 68 71 70 68 66 59 47 40 37 34 35 38 41 42 41 41 39 35 32 27 21 15 10 5 1 357 354 352 349 346 344
3 85 117 96 33 77 104 145 211 254 297 327 3 32 30 20 19 59 93 96 75 73 102 102 86 83 105 113 108 101 101 103 102 98 96 93 90 88 82 71 65 65 62 62 76 91 95 94 92 89 86 81 75 71 67 64 65 67 69 64 51 42 39 36 36 42 48 49 48 43 38 34 31 27 23 18 14 11 7 2 355 351 349 346 344 342
177 97 86 88 93 76 62 38 345 336 11 29 35 31 43 49 41 57 79 78 63 58 71 88 96 91 93 102 101 97 100 102 96 90 92 94 90 90 87 75 66 64 61 66 87 101 99 92 88 84 81 75 68 64 59 54 57 65 67 59 47 40 39 40 45 52 55 53 49 43 36 33 32 29 25 23 21 18 14 7 360 354 348 341 338 337
312 77 77 91 105 78 57 348 341 19 40 51 58 56 54 57 55 62 78 83 77 71 70 73 79 80 80 90 99 104 109 111 108 100 92 92 89 85 84 76 67 65 65 73 98 109 102 93 86 81 78 73 64 57 52 49 52 57 56 50 43 35 33 40 47 51 51 48 42 36 32 28 26 24 21 19 17 14 8 3 358 352 346 341 334 329
357 68 75 77 68 74 139 261 332 12 17 23 60 76 70 71 72 70 78 88 86 79 71 67 69 74 75 79 91 101 100 98 105 103 87 75 74 72 74 72 66 64 68 83 107 113 105 99 98 93 89 84 73 62 58 56 54 52 47 43 37 29 29 38 43 43 42 39 34 30 26 21 18 16 15 12 9 4 359 355 352 345 340 337 332 327
2 43 50 79 67 50 46 315 351 33 26 9 43 87 86 88 92 86 83 87 90 91 85 73 69 78 93 97 100 98 90 83 90 95 90 76 69 69 72 73 69 66 72 90 112 117 110 107 107 103 96 89 76 65 60 56 50 43 38 35 30 25 27 33 35 34 33 30 27 26 21 16 14 13 10 6 1 358 354 351 349 342 336 333 328 321
57 59 43 88 91 74 239 215 182 113 87 286 216 103 87 99 104 98 91 90 92 100 102 90 77 73 83 101 112 106 97 92 94 94 90 80 75 73 73 77 78 77 82 97 113 119 116 112 109 102 94 85 71 61 56 51 43 34 27 24 21 17 19 20 18 19 21 18 17 15 11 7 8 8 5 0 356 354 352 352 353 350 344 343 340 328
122 154 168 135 150 227 225 199 179 145 152 216 230 222 20 80 105 107 109 106 102 108 113 109 101 86 72 87 110 114 115 116 108 101 92 82 81 81 78 80 86 89 92 99 108 115 119 115 105 94 87 78 63 52 47 43 38 33 28 23 17 12 13 11 6 6 10 11 8 4 359 358 0 1 358 356 354 352 348 346 350 352 350 349 348 342